User: anonymous   Login
Location: Sun City Center
(27.6996°N, 82.3528°W)
Time: 22:54:20
(UTC-05:00)
Language:

Cosmos 2084 Rocket - Orbit

View from above orbital plane
View from above orbital plane
View from above satellite
View from above satellite

Ground track
Ground track

The orbit data is extracted from the following two-line orbital elements,

1 20666U 90055D   17326.53026171 +.00000049 +00000-0 +22337-4 0  9997
2 20666 062.7846 337.9844 0119679 125.0777 236.1611 14.92047032485330
Epoch (UTC): 22 November 2017 12:43:34
Eccentricity: 0.0119679
inclination: 62.7846°
perigee height: 508 km
apogee height: 675 km
right ascension of ascending node: 337.9844°
argument of perigee: 125.0777°
revolutions per day: 14.92047032
mean anomaly at epoch: 236.1611°
orbit number at epoch: 48533

The dashed part of the orbit path shows where the satellite is in the earth's shadow,  

DLR